Location: Unspecified
(0.0000°N, 0.0000°E)
Time: 07:47:09
(UTC+00:00)

deb Delta 104 - Pass Details

Date: 12 March 2026
Orbit: 1402 x 1485 km, 102.0° (Epoch: 18 April)

Event Time Altitude Azimuth Distance (km) Brightness Sun altitude
Rises 19:49:13 0° 196° (SSW) 4,492 ? -24.8°
Reaches altitude 10° 19:53:00 10° 212° (SSW) 3,526 ? -25.8°
Maximum altitude 19:58:14 19° 253° (WSW) 2,913 ? -27.1°
Drops below altitude 10° 20:03:33 10° 294° (WNW) 3,558 ? -28.4°
Sets 20:07:27 0° 311° (NW) 4,549 ? -29.4°
